Home   Weather   Fairfield   Past weeks
Flag for USA

Past Weather in Fairfield, Iowa, USA — Yesterday and Last 2 Weeks

Now
55 °F

Sunny.


Feels Like: 52 °F
Forecast: 55 / 30 °F
Wind: 13 mph from Southwest

Location: Fair Field

Current Time: Dec 5, 2019 at 2:04:47 pm

Latest Report: Dec 5, 2019 at 1:15 pm


Visibility: 10 mi

Pressure: 29.89 "Hg

Humidity: 51%

Dew Point: 37 °F

Location of FairfieldLocation

Past Weather in Fairfield — Graph

°F

Fairfield Temperature Yesterday

Maximum temperature yesterday: 52 °F (at 2:55 pm)
Minimum temperature yesterday: 30 °F (at 11:35 pm)
Average temperature yesterday: 39 °F

High & Low Weather Summary for the Past Weeks

 TemperatureHumidityPressure
High59 °F (Nov 24, 2:35 pm)100% (Nov 20, 11:35 pm)30.52 "Hg (Nov 20, 11:35 pm)
Low23 °F (Nov 22, 5:35 am)36% (Nov 24, 2:35 pm)29.25 "Hg (Nov 26, 11:35 pm)
Average37 °F85%29.89 "Hg
* Reported Nov 20 1:15 pm — Dec 5 1:15 pm, Fairfield. Weather by CustomWeather, © 2019

Note: Actual official high and low records may vary slightly from our data, if they occured in-between our weather recording intervals... More about our weather records

Fairfield Weather History for the Previous 24 Hours

Scroll right to see more
 ConditionsComfort  
Time TempWeatherWind HumidityBarometerVisibility
1:15 pm
Thu, Dec 5
55 °FSunny.13 mph51%29.89 "Hg10 mi
12:55 pm55 °FSunny.12 mph51%29.91 "Hg10 mi
12:35 pm54 °FSunny.9 mph54%29.92 "Hg10 mi
12:15 pm54 °FSunny.9 mph54%29.93 "Hg10 mi
11:55 am52 °FSunny.12 mph58%29.94 "Hg10 mi
11:35 am52 °FSunny.10 mph58%29.95 "Hg10 mi
11:15 am50 °FSunny.12 mph67%29.96 "Hg10 mi
10:55 am48 °FSunny.12 mph66%29.96 "Hg10 mi
10:35 am46 °FSunny.12 mph71%29.96 "Hg10 mi
10:15 am45 °FSunny.8 mph76%29.96 "Hg10 mi
9:55 am43 °FSunny.8 mph81%29.96 "Hg10 mi
9:35 am43 °FSunny.8 mph76%29.96 "Hg10 mi
9:15 am39 °FSunny.8 mph87%29.96 "Hg10 mi
8:35 am36 °FSunny.8 mph93%29.97 "Hg10 mi
8:15 am34 °FSunny.8 mph93%29.97 "Hg10 mi
7:55 am34 °FSunny.8 mph93%29.96 "Hg10 mi
7:35 am32 °FSunny.7 mph100%29.96 "Hg10 mi
7:15 am32 °FClear.8 mph93%29.96 "Hg10 mi
6:55 am32 °FClear.6 mph93%29.96 "Hg10 mi
6:35 am32 °FClear.6 mph93%29.96 "Hg10 mi
6:15 am30 °FClear.5 mph100%29.96 "Hg10 mi
5:55 am30 °FClear.7 mph100%29.96 "Hg10 mi
5:35 am30 °FClear.7 mph93%29.96 "Hg10 mi
5:15 am28 °FClear.5 mph93%29.95 "Hg10 mi
4:55 am30 °FClear.5 mph93%29.95 "Hg10 mi
4:35 am28 °FClear.5 mph93%29.96 "Hg10 mi
4:15 am27 °FClear.5 mph100%29.96 "Hg10 mi
3:55 am28 °FClear.3 mph93%29.96 "Hg10 mi
3:35 am28 °FClear.5 mph93%29.97 "Hg10 mi
3:15 am28 °FClear.3 mph93%29.97 "Hg10 mi
2:35 am28 °FClear.3 mph93%29.97 "Hg10 mi
2:15 am28 °FClear.No wind93%29.97 "Hg10 mi
1:55 am28 °FClear.No wind100%29.97 "Hg10 mi
1:35 am28 °FClear.No wind93%29.97 "Hg10 mi
1:15 am30 °FClear.No wind93%29.96 "Hg10 mi
12:55 am30 °FClear.No wind93%29.96 "Hg10 mi
12:35 am30 °FClear.No wind93%29.96 "Hg10 mi
12:15 am30 °FClear.No wind93%29.96 "Hg10 mi
11:55 pm
Wed, Dec 4
30 °FClear.No wind86%29.96 "Hg10 mi
11:35 pm30 °FClear.No wind93%29.96 "Hg10 mi
11:15 pm32 °FClear.No wind87%29.96 "Hg10 mi
10:35 pm32 °FClear.No wind87%29.95 "Hg10 mi
10:15 pm34 °FClear.5 mph81%29.95 "Hg10 mi
9:55 pm32 °FClear.No wind87%29.94 "Hg10 mi
9:35 pm34 °FClear.3 mph81%29.94 "Hg10 mi
9:15 pm37 °FClear.6 mph75%29.94 "Hg10 mi
8:55 pm37 °FClear.6 mph70%29.94 "Hg10 mi
8:35 pm37 °FClear.7 mph75%29.94 "Hg10 mi
8:15 pm37 °FClear.6 mph75%29.94 "Hg10 mi
7:55 pm37 °FClear.5 mph70%29.94 "Hg10 mi
7:35 pm39 °FClear.7 mph70%29.94 "Hg10 mi
7:15 pm39 °FClear.8 mph70%29.93 "Hg10 mi
6:55 pm41 °FClear.8 mph66%29.93 "Hg10 mi
6:15 pm41 °FClear.7 mph66%29.91 "Hg10 mi
5:55 pm41 °FClear.7 mph66%29.91 "Hg10 mi
5:35 pm43 °FClear.8 mph61%29.91 "Hg10 mi
5:15 pm43 °FClear.7 mph61%29.90 "Hg10 mi
4:55 pm45 °FClear.7 mph57%29.90 "Hg10 mi
4:35 pm46 °FSunny.9 mph53%29.89 "Hg10 mi
4:15 pm48 °FSunny.12 mph50%29.89 "Hg10 mi
3:55 pm50 °FSunny.14 mph47%29.88 "Hg10 mi
3:35 pm50 °FSunny.13 mph47%29.88 "Hg10 mi
3:15 pm52 °FSunny.14 mph44%29.87 "Hg10 mi
2:55 pm52 °FSunny.15 mph47%29.87 "Hg10 mi
2:35 pm50 °FSunny.12 mph50%29.86 "Hg10 mi
2:15 pm50 °FSunny.15 mph54%29.86 "Hg10 mi
Weather by CustomWeather, © 2019

See weather overview

Advertising